Weather History for Mammoth, CA

Change the Weather History Date:

Wednesday, May 22, 2013

  Actual Average Record
Temperature  
Mean Temperature 50 °F -  
Max Temperature 62 °F 64 °F 80 °F (2000)
Min Temperature 37 °F 52 °F 30 °F (2011)
Degree Days  
Heating Degree Days 16    
Moisture  
Dew Point 10 °F    
Average Humidity 20    
Maximum Humidity 39    
Minimum Humidity 9    
Precipitation  
Precipitation 0.00 in - - ()
Sea Level Pressure  
Sea Level Pressure 29.87 in    
Wind  
Wind Speed 18 mph (SW)    
Max Wind Speed 29 mph    
Max Gust Speed 45 mph    
Visibility 10 miles    
Events      
Averages and records for this station are not official NWS values.
T = Trace of Precipitation, MM = Missing Value Source: NWS Daily Summary

Daily Weather History Graph

Daily Weather History Graph

Search for Another Location

Airport:

Trip Planner

Search our weather history database for the weather conditions in past years. The results will help you decide how hot, cold, wet, or windy it might be!

Date:

Astronomy

May. 22, 2013 Rise Set
Actual Time 5:40 AM PDT 8:04 PM PDT
Civil Twilight 5:10 AM PDT 8:34 PM PDT
Nautical Twilight 4:33 AM PDT 9:11 PM PDT
Astronomical Twilight 3:53 AM PDT 9:51 PM PDT
Moon 5:34 PM PDT (5/22) 3:44 AM PDT (5/22)
Length of Visible Light 15h 23m
Length of Day
14h 23m
Waxing Gibbous, 92% of the Moon is Illuminated
May 22
Waxing Gibbous
May 24
Full
May 31
Last Quarter
Jun 8
New
Jun 16
First Quarter

Hourly Weather History & Observations

Time (PDT) Temp. Windchill Dew Point Humidity Pressure Visibility Wind Dir Wind Speed Gust Speed Precip Events Conditions
12:15 AM 53.6 °F - 8.6 °F 16% 29.95 in 10.0 mi SW 18.4 mph 35.7 mph N/A   Clear
12:35 AM 53.6 °F - 5.0 °F 14% 29.94 in 10.0 mi South 28.8 mph 35.7 mph N/A   Clear
12:55 AM 53.6 °F - 6.8 °F 15% 29.94 in 10.0 mi SSW 20.7 mph 39.1 mph N/A   Clear
1:15 AM 51.8 °F - 10.4 °F 19% 29.94 in 10.0 mi SSW 20.7 mph 33.4 mph N/A   Clear
1:35 AM 51.8 °F - 10.4 °F 19% 29.93 in 10.0 mi South 11.5 mph 31.1 mph N/A   Clear
1:55 AM 53.6 °F - 8.6 °F 16% 29.92 in 10.0 mi South 24.2 mph 33.4 mph N/A   Clear
2:15 AM 53.6 °F - 10.4 °F 18% 29.91 in 10.0 mi South 13.8 mph 32.2 mph N/A   Clear
2:35 AM 51.8 °F - 6.8 °F 16% 29.91 in 10.0 mi West 4.6 mph 28.8 mph N/A   Clear
2:55 AM 51.8 °F - 8.6 °F 18% 29.90 in 10.0 mi South 20.7 mph 29.9 mph N/A   Clear
3:15 AM 51.8 °F - 6.8 °F 16% 29.90 in 10.0 mi SW 13.8 mph 36.8 mph N/A   Clear
3:35 AM 51.8 °F - 5.0 °F 15% 29.88 in 10.0 mi South 24.2 mph 36.8 mph N/A   Clear
3:55 AM 51.8 °F - 6.8 °F 16% 29.88 in 10.0 mi South 25.3 mph 35.7 mph N/A   Clear
4:15 AM 51.8 °F - 6.8 °F 16% 29.88 in 10.0 mi SSW 25.3 mph 38.0 mph N/A   Clear
4:35 AM 50.0 °F - 10.4 °F 20% 29.87 in 10.0 mi SSW 17.3 mph 34.5 mph N/A   Clear
4:55 AM 50.0 °F - 12.2 °F 22% 29.85 in 10.0 mi South 27.6 mph 38.0 mph N/A   Clear
5:15 AM 50.0 °F - 12.2 °F 22% 29.86 in 10.0 mi SSW 24.2 mph 42.6 mph N/A   Clear
5:35 AM 50.0 °F - 12.2 °F 22% 29.86 in 10.0 mi South 18.4 mph 35.7 mph N/A   Clear
5:55 AM 50.0 °F - 14.0 °F 24% 29.85 in 10.0 mi SW 23.0 mph 36.8 mph N/A   Clear
6:15 AM 51.8 °F - 12.2 °F 21% 29.85 in 10.0 mi SW 21.9 mph 33.4 mph N/A   Clear
6:35 AM 50.0 °F - 12.2 °F 22% 29.85 in 10.0 mi South 19.6 mph 36.8 mph N/A   Clear
6:55 AM 51.8 °F - 12.2 °F 21% 29.86 in 10.0 mi WNW 9.2 mph 28.8 mph N/A   Clear
7:15 AM 53.6 °F - 12.2 °F 19% 29.85 in 10.0 mi SSW 13.8 mph 38.0 mph N/A   Clear
7:35 AM 51.8 °F - 19.4 °F 28% 29.86 in 10.0 mi South 9.2 mph 31.1 mph N/A   Clear
7:55 AM 53.6 °F - 10.4 °F 18% 29.86 in 10.0 mi SSW 12.7 mph 21.9 mph N/A   Clear
8:15 AM 55.4 °F - 10.4 °F 17% 29.86 in 10.0 mi SSW 17.3 mph 31.1 mph N/A   Clear
8:35 AM 55.4 °F - 10.4 °F 17% 29.86 in 10.0 mi South 10.4 mph 25.3 mph N/A   Clear
8:55 AM 55.4 °F - 10.4 °F 17% 29.86 in 10.0 mi South 19.6 mph 33.4 mph N/A   Clear
9:15 AM 57.2 °F - 10.4 °F 16% 29.86 in 10.0 mi SSW 15.0 mph 28.8 mph N/A   Clear
9:35 AM 57.2 °F - 10.4 °F 16% 29.86 in 10.0 mi SSW 21.9 mph 31.1 mph N/A   Clear
9:55 AM 59.0 °F - 12.2 °F 16% 29.85 in 10.0 mi SSW 26.5 mph 39.1 mph N/A   Clear
10:15 AM 59.0 °F - 10.4 °F 15% 29.85 in 10.0 mi SSW 19.6 mph 33.4 mph N/A   Clear
10:35 AM 59.0 °F - 10.4 °F 15% 29.86 in 10.0 mi SSW 16.1 mph 38.0 mph N/A   Clear
10:55 AM 59.0 °F - 8.6 °F 14% 29.86 in 10.0 mi SSW 16.1 mph 44.9 mph N/A   Clear
11:15 AM 60.8 °F - 8.6 °F 13% 29.86 in 10.0 mi WSW 16.1 mph 33.4 mph N/A   Clear
11:35 AM 60.8 °F - 10.4 °F 14% 29.86 in 10.0 mi SSW 10.4 mph 36.8 mph N/A   Clear
11:55 AM 60.8 °F - 10.4 °F 14% 29.85 in 10.0 mi South 20.7 mph 32.2 mph N/A   Clear
12:15 PM 60.8 °F - 8.6 °F 13% 29.86 in 10.0 mi SSW 20.7 mph 35.7 mph N/A   Clear
12:35 PM 60.8 °F - 8.6 °F 13% 29.85 in 10.0 mi SSW 26.5 mph 35.7 mph N/A   Clear
12:55 PM 62.6 °F - 6.8 °F 11% 29.85 in 10.0 mi SSW 24.2 mph 31.1 mph N/A   Clear
1:15 PM 62.6 °F - 5.0 °F 10% 29.85 in 10.0 mi South 19.6 mph 40.3 mph N/A   Clear
1:35 PM 62.6 °F - 1.4 °F 9% 29.85 in 10.0 mi SSW 19.6 mph 39.1 mph N/A   Clear
1:55 PM 62.6 °F - 1.4 °F 9% 29.85 in 10.0 mi SW 16.1 mph 34.5 mph N/A   Clear
2:15 PM 62.6 °F - 3.2 °F 9% 29.85 in 10.0 mi SW 5.8 mph 23.0 mph N/A   Clear
2:35 PM 62.6 °F - 3.2 °F 9% 29.84 in 10.0 mi SSW 13.8 mph 40.3 mph N/A   Clear
2:55 PM 62.6 °F - 3.2 °F 9% 29.85 in 10.0 mi SSW 12.7 mph 21.9 mph N/A   Clear
3:15 PM 62.6 °F - 5.0 °F 10% 29.85 in 10.0 mi West 16.1 mph 26.5 mph N/A   Clear
3:35 PM 62.6 °F - 5.0 °F 10% 29.85 in 10.0 mi SW 12.7 mph 25.3 mph N/A   Clear
3:55 PM 62.6 °F - 3.2 °F 9% 29.85 in 10.0 mi West 15.0 mph 24.2 mph N/A   Clear
4:15 PM 60.8 °F - 5.0 °F 11% 29.84 in 10.0 mi WNW 13.8 mph 26.5 mph N/A   Clear
4:35 PM 60.8 °F - 3.2 °F 10% 29.84 in 10.0 mi West 11.5 mph 21.9 mph N/A   Clear
4:55 PM 60.8 °F - 6.8 °F 12% 29.85 in 10.0 mi WNW 21.9 mph 29.9 mph N/A   Clear
5:15 PM 59.0 °F - 8.6 °F 14% 29.84 in 10.0 mi WNW 13.8 mph 26.5 mph N/A   Clear
5:35 PM 59.0 °F - 10.4 °F 15% 29.84 in 10.0 mi WNW 16.1 mph 33.4 mph N/A   Clear
5:55 PM 59.0 °F - 3.2 °F 11% 29.85 in 10.0 mi WSW 10.4 mph 25.3 mph N/A   Clear
6:15 PM 55.4 °F - 12.2 °F 18% 29.85 in 10.0 mi WNW 18.4 mph 24.2 mph N/A   Clear
6:35 PM 53.6 °F - 15.8 °F 22% 29.84 in 10.0 mi NW 12.7 mph 26.5 mph N/A   Clear
6:55 PM 51.8 °F - 17.6 °F 26% 29.85 in 10.0 mi WNW 17.3 mph 26.5 mph N/A   Clear
7:15 PM 50.0 °F - 19.4 °F 30% 29.86 in 10.0 mi WNW 21.9 mph 28.8 mph N/A   Clear
7:35 PM 48.2 °F - 15.8 °F 27% 29.86 in 10.0 mi WNW 24.2 mph 29.9 mph N/A   Clear
7:55 PM 44.6 °F 36.9 °F 15.8 °F 31% 29.86 in 10.0 mi WNW 18.4 mph 34.5 mph N/A   Clear
8:15 PM 44.6 °F 36.6 °F 15.8 °F 31% 29.86 in 10.0 mi West 19.6 mph 26.5 mph N/A   Clear
8:35 PM 42.8 °F 35.1 °F 17.6 °F 36% 29.85 in 10.0 mi West 16.1 mph 21.9 mph N/A   Clear
8:55 PM 41.0 °F 32.5 °F 17.6 °F 39% 29.86 in 10.0 mi West 17.3 mph 21.9 mph N/A   Clear
9:15 PM 41.0 °F 33.5 °F 15.8 °F 36% 29.86 in 10.0 mi West 13.8 mph - N/A   Clear
9:35 PM 41.0 °F 34.7 °F 15.8 °F 36% 29.86 in 10.0 mi West 10.4 mph - N/A   Clear
9:55 PM 39.2 °F 33.6 °F 15.8 °F 39% 29.86 in 10.0 mi WNW 8.1 mph - N/A   Clear
10:15 PM 39.2 °F 32.0 °F 14.0 °F 36% 29.87 in 10.0 mi West 11.5 mph 17.3 mph N/A   Clear
10:35 PM 39.2 °F 31.6 °F 15.8 °F 39% 29.86 in 10.0 mi West 12.7 mph 19.6 mph N/A   Clear
10:55 PM 37.4 °F 29.3 °F 14.0 °F 38% 29.86 in 10.0 mi West 12.7 mph 19.6 mph N/A   Clear
11:15 PM 39.2 °F 32.0 °F 14.0 °F 36% 29.86 in 10.0 mi West 11.5 mph 21.9 mph N/A   Clear
11:35 PM 39.2 °F 32.0 °F 14.0 °F 36% 29.86 in 10.0 mi West 11.5 mph 24.2 mph N/A   Clear
11:55 PM 39.2 °F 31.6 °F 14.0 °F 36% 29.86 in 10.0 mi WNW 12.7 mph 21.9 mph N/A   Clear